UAL9919 OMDB-KDEN

Flight info

Callsign UAL9919
Flight time N/A
Altitude 28000
Route NABIX P699 SOGAT DCT MEDMA L768 ULADA Q143 MEDGO N697 SIBLI/N0504F300 N697 NAGIP DCT NOVPA N697 MENLI L677 CVO L617 MENKU Y661 ANTAR/N0453F240 N133 KPC N137 ASTIS/N0493F320 UN137 NEVRA DCT SKP DCT BITLA DCT RETRA DCT DEPET DCT UNIMI L12 MOGTI Q163 HAFUN DCT FKS DCT OBOKA Z28 DIBIR/N0445F240 T601 NAVPI/N0480F340 DCT LIBSO DCT SHAPP DCT AMCON DCT IBROD DCT OSBOX DCT SUNOT/M084F350 DCT 58N020W 58N030W 58N040W 57N050W DCT HOIST/N0485F360 DCT 52N068W DCT 5080N DCT BILII/N0490F380 DCT FAR DCT PHP DCT NYTRO AALLE4
Aircraft B77W/H-SDE1E2E3FGHIJ2J3J4J5M1RWXY/LB1D1

Departure

Time 2026-05-05 20:06
Airport Dubai International Airport (OMDB)

Arrival

Time N/A
Airport Denver International Airport (KDEN)
Time Latitude Longitude Altitude Speed Heading
2026-05-05 19:35 25.24583 55.36618 26 ft 0 kts 312°
2026-05-05 19:55 25.24575 55.36628 26 ft 3 kts 312°
2026-05-05 19:55 25.24564 55.36642 26 ft 3 kts 312°
2026-05-05 19:56 25.24552 55.36657 26 ft 3 kts 312°
2026-05-05 19:56 25.24539 55.36671 26 ft 3 kts 312°
2026-05-05 19:56 25.24530 55.36682 32 ft 3 kts 312°
2026-05-05 19:56 25.24518 55.36697 32 ft 3 kts 312°
2026-05-05 19:57 25.24508 55.36709 26 ft 0 kts 312°
2026-05-05 19:58 25.24511 55.36707 26 ft 4 kts 316°
2026-05-05 19:58 25.24543 55.36703 26 ft 0 kts 21°
2026-05-05 19:59 25.24581 55.36725 26 ft 15 kts 29°
2026-05-05 20:00 25.24671 55.36785 26 ft 15 kts 31°
2026-05-05 20:00 25.24729 55.36872 27 ft 16 kts 92°
2026-05-05 20:00 25.24646 55.37037 27 ft 30 kts 122°
2026-05-05 20:00 25.24538 55.37230 27 ft 30 kts 121°
2026-05-05 20:01 25.24445 55.37431 27 ft 30 kts 101°
2026-05-05 20:01 25.24397 55.37651 28 ft 30 kts 118°
2026-05-05 20:01 25.24293 55.37846 28 ft 30 kts 122°
2026-05-05 20:01 25.24208 55.38006 29 ft 11 kts 114°
2026-05-05 20:02 25.24221 55.38053 30 ft 0 kts 47°
2026-05-05 20:04 25.24262 55.38085 33 ft 15 kts 33°
2026-05-05 20:04 25.24400 55.38182 35 ft 29 kts 32°
2026-05-05 20:04 25.24502 55.38248 32 ft 10 kts 31°
2026-05-05 20:04 25.24507 55.38252 32 ft 0 kts 31°
2026-05-05 20:05 25.24508 55.38252 32 ft 2 kts 31°
2026-05-05 20:05 25.24578 55.38299 35 ft 19 kts 27°
2026-05-05 20:05 25.24686 55.38242 36 ft 24 kts 303°
2026-05-05 20:05 25.24900 55.37859 35 ft 97 kts 301°
2026-05-05 20:06 25.25379 55.36997 35 ft 166 kts 301°
2026-05-05 20:06 25.26091 55.35719 98 ft 215 kts 302°
2026-05-05 20:06 25.26850 55.34345 904 ft 205 kts 302°
2026-05-05 20:06 25.27562 55.32990 1684 ft 204 kts 301°
2026-05-05 20:07 25.28284 55.31640 2330 ft 204 kts 303°
2026-05-05 20:07 25.29049 55.30310 2889 ft 206 kts 300°
2026-05-05 20:07 25.29393 55.28790 3191 ft 211 kts 257°
2026-05-05 20:07 25.28811 55.27317 3506 ft 210 kts 239°
2026-05-05 20:08 25.28126 55.25910 3883 ft 209 kts 242°
2026-05-05 20:08 25.27463 55.24440 3932 ft 220 kts 243°
2026-05-05 20:08 25.26781 55.22874 4051 ft 231 kts 243°
2026-05-05 20:08 25.26081 55.21255 4322 ft 237 kts 243°
2026-05-05 20:09 25.25358 55.19582 4608 ft 243 kts 243°
2026-05-05 20:09 25.24631 55.17883 4981 ft 247 kts 243°
2026-05-05 20:09 25.23960 55.16132 5334 ft 251 kts 253°
2026-05-05 20:09 25.23612 55.14187 5494 ft 264 kts 261°
2026-05-05 20:10 25.23369 55.12149 5815 ft 272 kts 262°
2026-05-05 20:10 25.23124 55.10062 6216 ft 276 kts 262°
2026-05-05 20:10 25.22867 55.07960 6691 ft 277 kts 261°
2026-05-05 20:10 25.22595 55.05848 7146 ft 278 kts 261°
2026-05-05 20:11 25.22314 55.03721 7586 ft 281 kts 261°
2026-05-05 20:11 25.22027 55.01583 8018 ft 283 kts 260°
2026-05-05 20:11 25.21751 54.99553 8300 ft 291 kts 260°
2026-05-05 20:11 25.21439 54.97295 8457 ft 303 kts 260°
2026-05-05 20:12 25.21119 54.94976 8770 ft 309 kts 261°
2026-05-05 20:12 25.20875 54.92593 9150 ft 315 kts 264°
2026-05-05 20:12 25.20716 54.90173 9634 ft 317 kts 265°
2026-05-05 20:12 25.20569 54.87778 10153 ft 317 kts 265°
2026-05-05 20:13 25.20414 54.85343 10644 ft 320 kts 265°
2026-05-05 20:13 25.20236 54.82808 10795 ft 335 kts 265°
2026-05-05 20:13 25.20050 54.80219 10926 ft 350 kts 265°
2026-05-05 20:13 25.19852 54.77477 11057 ft 366 kts 265°
2026-05-05 20:14 25.19741 54.74615 11172 ft 381 kts 271°
2026-05-05 20:14 25.19892 54.71660 11488 ft 390 kts 275°
2026-05-05 20:14 25.20127 54.68653 11918 ft 396 kts 275°
2026-05-05 20:14 25.20356 54.65615 12463 ft 398 kts 274°
2026-05-05 20:15 25.20561 54.62562 13033 ft 399 kts 274°
2026-05-05 20:15 25.20743 54.59491 13563 ft 402 kts 274°
2026-05-05 20:15 25.20915 54.56405 14084 ft 404 kts 274°